Regional Weather Roundup
Issued by NWS

Home | Current Version | Previous Version | Graphics & Text | Print | Product List | Glossary On
Versions: 1 2 3 4 5 6 7 8 9 10 11 12 13 14 15 16 17 18 19 20 21 22 23 24 25 26 27 28 29 30 31 32 33 34 35 36 37 38 39 40 41 42 43 44 45 46 47 48 49 50
000
ASUS45 KTFX 200704
RWRMT
MONTANA HOURLY WEATHER ROUNDUP
NATIONAL WEATHER SERVICE GREAT FALLS MT
104 AM MDT WED AUG 20 2014

NOTE: "FAIR" INDICATES FEW OR NO CLOUDS BELOW 12000 FEET WITH NO
SIGNIFICANT WEATHER AND/OR OBSTRUCTIONS TO VISIBILITY.

* THESE STATIONS ARE NOT UNDER NWS QUALITY CONTROL. THEY DO NOT
   REPORT WEATHER SUCH AS PRECIPITATION OR FOG.

MTZ001>007-043-200800-
WEST OF THE DIVIDE
CITY           SKY/WX    TMP DP  RH WIND       PRES   REMARKS
KALISPELL      CLOUDY    59  57  93 N8        29.76F
MISSOULA       MOCLDY    66  45  47 VRB6      29.80R
BUTTE          PTCLDY    55  43  64 CALM      29.92S
MULLAN PASS    CLEAR     54  43  67 S8        29.92S
* LOOKOUT PASS N/A       56  50  80 N/A        N/A
* RONAN APT    MOCLDY    55  48  77 N/A        N/A
* SEELEY LAKE  N/A       51  44  77 NE1        N/A
* THOMP F APT  PTCLDY    49  46  89 NE4G10     N/A
$$

MTZ008-052>055-200800-
SOUTHWEST MONTANA
CITY           SKY/WX    TMP DP  RH WIND       PRES   REMARKS
BOZEMAN        CLOUDY    59  52  78 CALM      29.85F
DILLON         PTCLDY    54  46  74 E6        29.91R
W YELLOWSTONE  CLOUDY    48  46  93 CALM      30.04F
* THREE FORKS  MOCLDY    66  57  73 N/A        N/A
* RAYNOLDS PAS N/A       49  30  48 SE10       N/A
* WHITEHALL    N/A       65  44  47 S3G15      N/A
* WISE RIVER   N/A       55  45  69 E4G9       N/A
$$

MTZ009>010-012-014-046-048-049-054-200800-
EAST SLOPES AND CENTRAL MONTANA
CITY           SKY/WX    TMP DP  RH WIND       PRES   REMARKS
CUT BANK       MOCLDY    55  48  77 N8        29.79R
GREAT FALLS    MOCLDY    63  54  73 E6        29.77S
HELENA         PTCLDY    70  48  46 CALM      29.81R
MALMSTROM AFB  MOCLDY    63  50  63 E6        29.79R
* CONRAD       MOCLDY    61  54  78 N/A        N/A
* EAST GLACIER N/A       58  49  72 W16        N/A
* MONARCH      N/A       65  35  33 NW9G15     N/A
* PENDROY      N/A       62  43  50 S8         N/A
* SAINT MARY   N/A       52  48  86 S4         N/A
* SWEET GRASS  N/A       59  57  93 NW9G14     N/A
$$

MTZ011-013-016-021-035-040-045-047-050-051-200800-
NORTH CENTRAL MONTANA
CITY           SKY/WX    TMP DP  RH WIND       PRES   REMARKS
HAVRE          MOCLDY    64  52  65 SW9       29.69R
LEWISTOWN      CLOUDY    64  45  50 W7        29.77R
* CHESTER      N/A       65  47  52 NW2        N/A
* JUDITH GAP   N/A       63  42  46 W5         N/A
* LOMA         N/A       71  46  41 W6         N/A
$$

MTZ017>020-022>027-061-062-200800-
NORTHEAST MONTANA
CITY           SKY/WX    TMP DP  RH WIND       PRES   REMARKS
GLASGOW        PTCLDY    70  48  46 CALM      29.59R
GLENDIVE       CLOUDY    72  57  59 SW10      29.66R
JORDAN         PTCLDY    64  55  73 SW5       29.61F
SIDNEY         CLOUDY    66  57  73 CALM      29.64S
WOLF POINT     PTCLDY    64  45  50 NE6       29.60F
* BEAVER HILL  N/A       74  56  54 SE17G22    N/A
$$

MTZ028>042-056>058-200800-
SOUTHCENTRAL AND SOUTHEAST MONTANA
CITY           SKY/WX    TMP DP  RH WIND       PRES   REMARKS
BAKER          PTCLDY    70  57  64 SE14      29.69F
BILLINGS       MOCLDY    72  43  35 SW12      29.75R
LIVINGSTON     CLOUDY    66  43  43 SW25G44   29.80S
MILES CITY     CLOUDY    73  50  44 S9        29.63F
* LAUREL APT   MOCLDY    73  39  29 W7         N/A
* ROUNDUP APT  MOCLDY    70  43  38 N/A        N/A
* LAME DEER    N/A       78  39  25 SW6G11     N/A
* REED POINT   N/A       69  42  38 W5         N/A
* ROSCOE HILL  N/A       64  39  40 SW4        N/A
$$

REGIONAL REPORTS...DAKOTAS
CITY           SKY/WX    TMP DP  RH WIND       PRES   REMARKS
WILLISTON      MOCLDY    73  61  66 S6        29.64S
DICKINSON      PTCLDY    64  57  78 S7        29.68F
BEACH          N/A       66  59  78 SE13      29.68F
CROSBY         CLEAR     72  63  73 S17G26    29.62F
TIOGA          CLEAR     68  68 100 SE10      29.70S
WATFORD CITY   CLEAR     66  61  84 CALM      29.64S
BISMARCK       PTCLDY    70  61  73 SE7       29.72F
GRAND FORKS    CLEAR     66  63  90 SE5       29.76S
FARGO          CLEAR     66  63  90 SE6       29.77R
BUFFALO SD     PTCLDY    72  59  64 SE13      29.65S
RAPID CITY     CLOUDY    72  55  55 S10       29.75S
$$

REGIONAL REPORTS...WYOMING/IDAHO/WASHINGTON
CITY           SKY/WX    TMP DP  RH WIND       PRES   REMARKS
GILLETTE       CLOUDY    75  45  34 SW21G29   29.75S
SHERIDAN       CLOUDY    68  48  49 S7        29.74S
CODY           CLOUDY    66  46  49 SW13      29.88S
YELLOWSTONE LA CLOUDY    46  43  89 CALM      30.11F
SALMON         CLOUDY    57  52  83 S6        29.88S
MULLAN PASS    CLEAR     54  43  67 S8        29.92S
SAND POINT     LGT RAIN  63  55  75 E7        29.75R
SPOKANE        MOCLDY    66  54  65 E3        29.72R
$$

REGIONAL REPORTS...SASKATCHEWAN
CITY           SKY/WX    TMP DP  RH WIND       PRES   REMARKS
SWIFT CURRENT  CLEAR     61  57  87 W18       29.64R

$$



USA.gov is the U.S. government's official web portal to all federal, state and local government web resources and services.